sat.trackr.live / text

‹ back to catalog

STARLINK-31205

NORAD 59046 · 2024-038Z

PAYLOAD ACTIVE UNKNOWN

§ Identity

Operator
Country
US
Launch date
2024-02-25
Launch site
AFETR
Launch vehicle
Mass (kg)
RCS (m²)

Purposes: comms

External: N2YO · Heavens-Above · Gunter

§ Orbital elements

Epoch: 2026-05-25T04:07:12.154944Z

Period
94.27 min
Inclination
43.0031°
Eccentricity
0.0001304
Mean motion
15.27578732 rev/d
Perigee alt
482.2 km
Apogee alt
483.9 km
Semi-major
6,861.2 km
B*
5.0044e-5
RAAN
311.7668°
Arg perigee
281.3465°
Mean anomaly
78.7240°
Rev number
12,649

§ Raw data

STARLINK-312051 59046U 24038Z   26145.17166846  .00001115  00000+0  50044-4 0  99922 59046  43.0031 311.7668 0001304 281.3465  78.7240 15.27578732126493

JSON: /api/v1/satellites/59046 · /tle

For live sub-satellite position, see the globe view (requires WebGL).

§ Visibility from observer

Set your observer location to see the next 7 days of passes ≥ 10°. The values pass through the URL so the page stays shareable.

No JS? Fill the form by hand. The geolocation button needs JavaScript.